| time (UTC) | temp F | wind direction | speed knots | gust knots | rain 1hr in | rain 24hr in | rain mn in | humidity % | barometer mb |
| 20260903125710 | 82 | 236 | 1.7 | 3.5 | 0.00 | 0.00 | 0.00 | 86 | 1014.2 |
| 20260903124639 | 82 | 214 | 2.6 | 3.5 | 0.00 | 0.00 | 0.00 | 86 | 1014.3 |
| 20260903123639 | 81 | 194 | 2.6 | 3.5 | 0.00 | 0.00 | 0.00 | 86 | 1014.5 |
| 20260903120330 | 81 | 177 | 3.5 | 7.0 | 0.00 | 0.00 | 0.00 | 87 | 1014.3 |
| 20260903115318 | 81 | 202 | 5.2 | 7.0 | 0.00 | 0.00 | 0.00 | 87 | 1014.3 |
| 20260903114327 | 82 | 213 | 3.5 | 6.1 | 0.00 | 0.00 | 0.00 | 87 | 1013.9 |
| 20260903112217 | 82 | 215 | 0.9 | 3.5 | 0.00 | 0.00 | 0.00 | 88 | 1013.9 |
| 20260903111141 | 81 | 217 | 2.6 | 3.5 | 0.00 | 0.00 | 0.00 | 88 | 1013.4 |
| 20260903110127 | 81 | 232 | 1.7 | 4.3 | 0.00 | 0.00 | 0.00 | 88 | 1013.3 |
| 20260903103958 | 81 | 219 | 3.5 | 5.2 | 0.00 | 0.00 | 0.00 | 87 | 1012.9 |
| 20260903102941 | 81 | 225 | 3.5 | 5.2 | 0.00 | 0.00 | 0.00 | 87 | 1013.0 |
| 20260903101930 | 82 | 223 | 3.5 | 5.2 | 0.00 | 0.00 | 0.00 | 87 | 1013.0 |
| 20260903100854 | 82 | 221 | 3.5 | 6.1 | 0.00 | 0.00 | 0.00 | 87 | 1012.8 |
| 20260903095833 | 82 | 215 | 5.2 | 7.0 | 0.00 | 0.00 | 0.00 | 87 | 1012.9 |
| 20260903094819 | 82 | 214 | 6.1 | 10.4 | 0.00 | 0.00 | 0.00 | 86 | 1012.8 |
| 20260903092614 | 83 | 185 | 2.6 | 7.8 | 0.00 | 0.00 | 0.00 | 85 | 1012.8 |
| 20260903091559 | 83 | 143 | 1.7 | 3.5 | 0.00 | 0.00 | 0.00 | 84 | 1012.9 |
| 20260903085357 | 83 | 118 | 1.7 | 4.3 | 0.00 | 0.40 | 0.00 | 85 | 1012.5 |
| 20260903084401 | 83 | 160 | 1.7 | 4.3 | 0.00 | 0.51 | 0.00 | 85 | 1012.5 |
| 20260903083418 | 83 | 107 | 0.9 | 3.5 | 0.00 | 0.51 | 0.00 | 84 | 1012.6 |
| 20260903082417 | 83 | 120 | 0.9 | 4.3 | 0.00 | 0.51 | 0.00 | 84 | 1012.5 |
| 20260903081353 | 84 | 96 | 0.9 | 6.1 | 0.00 | 0.51 | 0.00 | 84 | 1012.5 |
| 20260903073022 | 84 | 119 | 0.9 | 2.6 | 0.00 | 0.51 | 0.00 | 82 | 1012.4 |
| 20260903072012 | 84 | 107 | 0.9 | 3.5 | 0.00 | 0.51 | 0.00 | 81 | 1012.5 |
| 20260903065846 | 84 | 119 | 1.7 | 6.1 | 0.00 | 0.51 | 0.00 | 81 | 1012.5 |
| 20260903064833 | 84 | 132 | 1.7 | 5.2 | 0.00 | 0.51 | 0.00 | 81 | 1012.7 |
| 20260903063832 | 83 | 132 | 1.7 | 7.0 | 0.00 | 0.51 | 0.00 | 82 | 1012.9 |
| 20260903062818 | 83 | 106 | 2.6 | 7.0 | 0.00 | 0.51 | 0.00 | 83 | 1013.1 |
| 20260903061759 | 84 | 115 | 2.6 | 5.2 | 0.00 | 0.51 | 0.00 | 84 | 1013.3 |
| 20260903060724 | 84 | 144 | 1.7 | 5.2 | 0.00 | 0.51 | 0.00 | 83 | 1013.4 |
| 20260903055657 | 84 | 146 | 0.9 | 5.2 | 0.00 | 0.51 | 0.00 | 83 | 1013.6 |
| 20260903054712 | 84 | 111 | 1.7 | 5.2 | 0.00 | 0.51 | 0.00 | 83 | 1013.6 |
| 20260903053707 | 84 | 138 | 0.9 | 6.1 | 0.00 | 0.51 | 0.00 | 84 | 1013.8 |
| 20260903051523 | 84 | 124 | 1.7 | 5.2 | 0.00 | 0.51 | 0.00 | 83 | 1013.9 |
| 20260903050448 | 84 | 158 | 2.6 | 6.1 | 0.00 | 0.51 | 0.00 | 82 | 1014.0 |
| 20260903044311 | 84 | 140 | 3.5 | 7.0 | 0.00 | 0.51 | 0.00 | 82 | 1014.2 |
| 20260903043240 | 84 | 142 | 2.6 | 6.1 | 0.00 | 0.51 | 0.00 | 82 | 1014.3 |
| 20260903041135 | 84 | 116 | 2.6 | 7.8 | 0.00 | 0.51 | 0.00 | 82 | 1014.6 |
| 20260903033924 | 84 | 93 | 2.6 | 6.1 | 0.00 | 0.51 | 0.51 | 82 | 1014.7 |
| 20260903032858 | 84 | 76 | 1.7 | 6.1 | 0.00 | 0.51 | 0.51 | 82 | 1014.7 |
| 20260903030642 | 84 | 142 | 3.5 | 7.8 | 0.00 | 0.51 | 0.51 | 81 | 1014.7 |
| 20260903025658 | 84 | 118 | 3.5 | 7.8 | 0.00 | 0.51 | 0.51 | 80 | 1014.7 |
| 20260903024701 | 84 | 140 | 2.6 | 7.0 | 0.00 | 0.51 | 0.51 | 82 | 1014.6 |
| 20260903023700 | 84 | 103 | 2.6 | 6.1 | 0.00 | 0.51 | 0.51 | 82 | 1014.7 |
| 20260903021538 | 84 | 88 | 1.7 | 6.1 | 0.00 | 0.51 | 0.51 | 82 | 1014.7 |
| 20260903020557 | 84 | 0 | 1.7 | 4.3 | 0.00 | 0.51 | 0.51 | 82 | 1014.6 |
| 20260903015521 | 84 | 106 | 1.7 | 5.2 | 0.00 | 0.51 | 0.51 | 82 | 1014.6 |
| 20260903012230 | 84 | 107 | 2.6 | 7.0 | 0.00 | 0.51 | 0.51 | 81 | 1014.3 |
| 20260903011238 | 84 | 73 | 1.7 | 7.0 | 0.00 | 0.51 | 0.51 | 80 | 1014.3 |
| 20260903010210 | 84 | 96 | 2.6 | 7.8 | 0.00 | 0.51 | 0.51 | 80 | 1014.2 |
| 20260903005138 | 84 | 77 | 2.6 | 7.8 | 0.00 | 0.51 | 0.51 | 80 | 1014.0 |
| 20260903004138 | 84 | 101 | 3.5 | 9.6 | 0.00 | 0.51 | 0.51 | 80 | 1014.0 |
| 20260903003145 | 84 | 51 | 3.5 | 9.6 | 0.00 | 0.51 | 0.51 | 81 | 1013.9 |
| 20260903001033 | 84 | 117 | 2.6 | 7.0 | 0.00 | 0.51 | 0.51 | 81 | 1013.7 |
| 20260903000040 | 84 | 96 | 1.7 | 5.2 | 0.00 | 0.51 | 0.51 | 80 | 1013.8 |
| 20260902232805 | 85 | 110 | 3.5 | 6.1 | 0.00 | 0.51 | 0.51 | 81 | 1013.5 |
| 20260902231800 | 85 | 92 | 2.6 | 6.1 | 0.00 | 0.51 | 0.51 | 80 | 1013.5 |
| 20260902230726 | 85 | 97 | 2.6 | 6.1 | 0.00 | 0.51 | 0.51 | 80 | 1013.3 |
| 20260902225705 | 85 | 117 | 3.5 | 7.0 | 0.00 | 0.51 | 0.51 | 80 | 1013.2 |
| 20260902224649 | 85 | 83 | 2.6 | 7.8 | 0.00 | 0.51 | 0.51 | 80 | 1013.1 |
| 20260902223657 | 85 | 78 | 2.6 | 7.8 | 0.00 | 0.51 | 0.51 | 81 | 1013.2 |
| 20260902222629 | 85 | 96 | 3.5 | 6.1 | 0.00 | 0.51 | 0.51 | 81 | 1013.1 |
| 20260902220521 | 85 | 87 | 3.5 | 7.0 | 0.00 | 0.51 | 0.51 | 81 | 1013.2 |
| 20260902214409 | 85 | 94 | 2.6 | 6.1 | 0.00 | 0.51 | 0.51 | 81 | 1013.5 |
| 20260902212241 | 85 | 89 | 2.6 | 6.1 | 0.00 | 0.51 | 0.51 | 81 | 1013.4 |
| 20260902211235 | 85 | 109 | 2.6 | 7.0 | 0.00 | 0.51 | 0.51 | 81 | 1013.3 |
| 20260902210213 | 85 | 104 | 2.6 | 7.8 | 0.00 | 0.51 | 0.51 | 81 | 1013.3 |
| 20260902202917 | 85 | 111 | 3.5 | 7.0 | 0.00 | 0.51 | 0.51 | 81 | 1013.6 |
| 20260902201930 | 86 | 122 | 3.5 | 7.0 | 0.00 | 0.51 | 0.51 | 79 | 1013.6 |
| 20260902194616 | 85 | 123 | 4.3 | 7.0 | 0.00 | 0.51 | 0.51 | 78 | 1013.7 |
| 20260902193600 | 86 | 63 | 3.5 | 7.0 | 0.00 | 0.51 | 0.51 | 78 | 1013.9 |
| 20260902192538 | 85 | 131 | 2.6 | 6.1 | 0.00 | 0.51 | 0.51 | 78 | 1014.1 |
| 20260902191544 | 85 | 69 | 2.6 | 7.0 | 0.00 | 0.51 | 0.51 | 79 | 1014.2 |
| 20260902190550 | 85 | 68 | 3.5 | 7.0 | 0.00 | 0.51 | 0.51 | 79 | 1014.4 |
| 20260902185556 | 85 | 67 | 3.5 | 7.0 | 0.00 | 0.51 | 0.51 | 78 | 1014.4 |
| 20260902184613 | 85 | 91 | 3.5 | 7.0 | 0.00 | 0.51 | 0.51 | 77 | 1014.4 |
| 20260902183609 | 85 | 126 | 2.6 | 7.8 | 0.00 | 0.51 | 0.51 | 79 | 1014.4 |
| 20260902182544 | 85 | 86 | 3.5 | 7.8 | 0.00 | 0.51 | 0.51 | 79 | 1014.4 |
| 20260902181550 | 85 | 111 | 4.3 | 7.8 | 0.00 | 0.51 | 0.51 | 79 | 1014.4 |
| 20260902180602 | 85 | 134 | 3.5 | 7.0 | 0.00 | 0.51 | 0.51 | 79 | 1014.6 |
| 20260902175543 | 86 | 102 | 1.7 | 7.0 | 0.00 | 0.51 | 0.51 | 79 | 1014.7 |
| 20260902174513 | 86 | 117 | 2.6 | 7.0 | 0.00 | 0.51 | 0.51 | 79 | 1014.8 |
| 20260902173442 | 86 | 108 | 2.6 | 7.0 | 0.00 | 0.51 | 0.51 | 78 | 1014.8 |
| 20260902172449 | 86 | 100 | 3.5 | 7.0 | 0.00 | 0.51 | 0.51 | 78 | 1014.9 |
| 20260902170300 | 86 | 109 | 3.5 | 7.8 | 0.00 | 0.51 | 0.51 | 78 | 1015.0 |
| 20260902165222 | 86 | 125 | 3.5 | 7.8 | 0.00 | 0.51 | 0.51 | 78 | 1015.3 |
| 20260902164218 | 86 | 84 | 3.5 | 7.0 | 0.00 | 0.51 | 0.51 | 79 | 1015.4 |
| 20260902163215 | 86 | 64 | 3.5 | 7.0 | 0.00 | 0.51 | 0.51 | 78 | 1015.6 |
| 20260902162155 | 86 | 51 | 2.6 | 7.0 | 0.00 | 0.51 | 0.51 | 78 | 1015.7 |
| 20260902161122 | 86 | 88 | 2.6 | 6.1 | 0.00 | 0.51 | 0.51 | 79 | 1015.6 |
| 20260902160143 | 86 | 107 | 2.6 | 6.1 | 0.00 | 0.51 | 0.51 | 79 | 1015.8 |
| 20260902155203 | 86 | 89 | 2.6 | 6.1 | 0.00 | 0.51 | 0.51 | 80 | 1015.8 |
| 20260902151839 | 85 | 46 | 1.7 | 6.1 | 0.00 | 0.51 | 0.51 | 81 | 1015.8 |
| 20260902150825 | 85 | 59 | 2.6 | 6.1 | 0.00 | 0.51 | 0.51 | 81 | 1015.7 |
| 20260902145756 | 85 | 55 | 2.6 | 6.1 | 0.00 | 0.51 | 0.51 | 80 | 1015.7 |
| 20260902144727 | 86 | 19 | 2.6 | 6.1 | 0.00 | 0.51 | 0.51 | 79 | 1015.7 |
| 20260902143740 | 86 | 30 | 2.6 | 6.1 | 0.00 | 0.51 | 0.51 | 79 | 1015.6 |
| 20260902141545 | 86 | 70 | 2.6 | 6.1 | 0.00 | 0.51 | 0.51 | 79 | 1015.7 |
| 20260902140516 | 85 | 45 | 1.7 | 6.1 | 0.00 | 0.51 | 0.51 | 79 | 1015.7 |
| 20260902135501 | 85 | 333 | 3.5 | 7.0 | 0.00 | 0.51 | 0.51 | 80 | 1015.5 |
| 20260902134500 | 85 | 0 | 2.6 | 7.0 | 0.00 | 0.51 | 0.51 | 81 | 1015.6 |
| 20260902133457 | 84 | 39 | 1.7 | 4.3 | 0.00 | 0.51 | 0.51 | 83 | 1015.4 |
| 20260902132503 | 84 | 0 | 1.7 | 3.5 | 0.00 | 0.51 | 0.51 | 84 | 1015.5 |
| 20260902131427 | 83 | 24 | 1.7 | 3.5 | 0.00 | 0.51 | 0.51 | 86 | 1015.4 |